Park Rapids, MN

12:57 AM CDT on April 21, 2018 (GMT -0500)
Park Rapids Municipal

Weather History for KPKD - December, 2011

Change the Weather History Date:

Saturday, December 31, 2011

  Actual Average Record
Temperature  
Mean Temperature 28 °F -  
Max Temperature 32 °F 13 °F 35 °F (1949)
Min Temperature 24 °F -5 °F -40 °F (1967)
Degree Days  
Heating Degree Days 37    
Moisture  
Dew Point 27 °F    
Average Humidity 96    
Maximum Humidity 100    
Minimum Humidity 80    
Precipitation  
Precipitation 0.00 in - - ()
Sea Level Pressure  
Sea Level Pressure 29.68 in    
Wind  
Wind Speed 8 mph (SSE)    
Max Wind Speed 24 mph    
Max Gust Speed 34 mph    
Visibility 3 miles    
Events Fog , Snow    
Averages and records for this station are not official NWS values.
T = Trace of Precipitation, MM = Missing Value Source: NWS Daily Summary

Daily Weather History Graph

Daily Weather History Graph

Search for Another Location

Airport or City:

Astronomy

Dec. 31, 2011 Rise Set
Actual Time 8:05 AM CST 4:40 PM CST
Civil Twilight 7:30 AM CST 5:16 PM CST
Nautical Twilight 6:51 AM CST 5:54 PM CST
Astronomical Twilight 6:14 AM CST 6:31 PM CST
Moon 11:22 AM CST (12/31) No Moon Set
Length of Visible Light 9h 45m
Length of Day
8h 35m
Waxing Crescent, 45% of the Moon is Illuminated
Dec 31
Waxing Crescent
Jan 1
First Quarter
Jan 9
Full
Jan 16
Last Quarter
Jan 23
New

Hourly Weather History & Observations

Time (CST) Temp. Windchill Dew Point Humidity Pressure Visibility Wind Dir Wind Speed Gust Speed Precip Events Conditions
12:06 AM 24.8 °F 16.9 °F 24.8 °F 100% 29.71 in 2.5 mi SSE 6.9 mph - N/A   Overcast
12:13 AM 24.8 °F 16.9 °F 24.8 °F 100% 29.70 in 3.0 mi SSE 6.9 mph - N/A   Overcast
12:34 AM 24.8 °F 16.9 °F 24.8 °F 100% 29.70 in 2.5 mi SSE 6.9 mph - N/A   Overcast
12:49 AM 24.8 °F 16.1 °F 24.8 °F 100% 29.69 in 4.0 mi SSE 8.1 mph - N/A   Overcast
12:53 AM 25.0 °F 15.5 °F 24.1 °F 96% 29.76 in 4.0 mi SSE 9.2 mph - N/A   Overcast
1:23 AM 24.8 °F 16.1 °F 24.8 °F 100% 29.70 in 2.0 mi South 8.1 mph - N/A   Overcast
1:39 AM 24.8 °F 16.9 °F 24.8 °F 100% 29.69 in 3.0 mi South 6.9 mph - N/A   Overcast
1:53 AM 25.0 °F 16.3 °F 24.1 °F 96% 29.76 in 4.0 mi South 8.1 mph - N/A   Overcast
2:53 AM 26.1 °F 16.8 °F 24.1 °F 92% 29.74 in 4.0 mi SSE 9.2 mph - N/A   Overcast
3:44 AM 26.6 °F 16.8 °F 24.8 °F 93% 29.64 in 2.5 mi SE 10.4 mph - N/A   Overcast
3:53 AM 26.1 °F 15.6 °F 25.0 °F 96% 29.70 in 2.0 mi SSE 11.5 mph - N/A   Overcast
4:04 AM 26.6 °F 16.8 °F 24.8 °F 93% 29.62 in 1.5 mi SSE 10.4 mph - N/A   Overcast
4:31 AM 26.6 °F 18.2 °F 26.6 °F 100% 29.62 in 0.8 mi SSE 8.1 mph - N/A   Overcast
4:53 AM 26.6 °F 16.8 °F 26.6 °F 100% 29.62 in 0.8 mi SSE 10.4 mph - N/A   Overcast
5:02 AM 26.6 °F 17.5 °F 26.6 °F 100% 29.62 in 1.0 mi South 9.2 mph - N/A   Overcast
5:53 AM 28.4 °F 19.7 °F 26.6 °F 93% 29.61 in 1.5 mi SSE 9.2 mph - N/A   Overcast
6:05 AM 28.4 °F 19.1 °F 26.6 °F 93% 29.61 in 2.0 mi South 10.4 mph - N/A   Overcast
6:35 AM 28.4 °F 19.7 °F 26.6 °F 93% 29.62 in 1.5 mi SSE 9.2 mph - N/A   Overcast
6:53 AM 28.0 °F 18.6 °F 27.0 °F 96% 29.67 in 0.8 mi SE 10.4 mph - N/A   Overcast
7:53 AM 28.0 °F 18.1 °F 27.0 °F 96% 29.65 in 0.5 mi SE 11.5 mph - N/A Fog Light Freezing Fog
8:41 AM 28.4 °F 20.4 °F 28.4 °F 100% 29.60 in 0.2 mi SSE 8.1 mph - N/A Fog Light Freezing Fog
8:53 AM 28.4 °F 21.2 °F 28.4 °F 100% 29.60 in 0.2 mi SE 6.9 mph - N/A Fog Light Freezing Fog
9:53 AM 28.9 °F 22.8 °F 28.9 °F 100% 29.65 in 0.2 mi SE 5.8 mph - N/A Fog Light Freezing Fog
10:53 AM 30.0 °F 25.2 °F 28.9 °F 96% 29.65 in 0.5 mi ESE 4.6 mph - N/A Fog Light Freezing Fog
11:25 AM 30.2 °F 25.4 °F 30.2 °F 100% 29.58 in 0.2 mi ESE 4.6 mph - N/A Fog Light Freezing Fog
11:41 AM 30.2 °F 25.4 °F 30.2 °F 100% 29.58 in 0.5 mi SSE 4.6 mph - N/A Fog Light Freezing Fog
11:50 AM 30.2 °F 25.4 °F 30.2 °F 100% 29.58 in 0.2 mi SE 4.6 mph - N/A Fog Light Freezing Fog
11:53 AM 30.9 °F 25.2 °F 30.0 °F 96% 29.64 in 0.2 mi SE 5.8 mph - N/A Fog Light Freezing Fog
12:53 PM 30.9 °F 25.2 °F 30.0 °F 96% 29.63 in 0.2 mi North 5.8 mph - N/A Fog Light Freezing Fog
1:53 PM 30.9 °F 24.3 °F 30.0 °F 96% 29.63 in 0.2 mi ESE 6.9 mph - N/A Fog Light Freezing Fog
2:00 PM 30.2 °F 22.6 °F 30.2 °F 100% 29.57 in 0.5 mi SE 8.1 mph - 0.00 in Fog , Snow Light Snow
2:53 PM 30.9 °F - 30.0 °F 96% 29.66 in 0.8 mi Calm Calm - 0.00 in   Overcast
3:17 PM 30.2 °F - 30.2 °F 100% 29.61 in 1.2 mi Calm Calm - N/A   Overcast
3:53 PM 30.9 °F - 30.0 °F 96% 29.69 in 1.8 mi Calm Calm - N/A   Overcast
4:07 PM 30.2 °F - 30.2 °F 100% 29.64 in 2.5 mi Calm Calm - N/A   Overcast
4:14 PM 30.2 °F - 30.2 °F 100% 29.65 in 3.0 mi Calm Calm - N/A   Overcast
4:25 PM 30.2 °F 25.4 °F 30.2 °F 100% 29.66 in 2.0 mi WNW 4.6 mph - N/A   Overcast
4:35 PM 30.2 °F - 30.2 °F 100% 29.65 in 1.5 mi Calm Calm - N/A   Overcast
4:53 PM 30.9 °F 27.5 °F 30.0 °F 96% 29.72 in 1.5 mi WNW 3.5 mph - N/A   Overcast
5:25 PM 30.2 °F - 30.2 °F 100% 29.67 in 0.5 mi Calm Calm - N/A Fog Light Freezing Fog
5:53 PM 30.9 °F - 30.0 °F 96% 29.72 in 0.8 mi Calm Calm - N/A   Mist
6:02 PM 30.2 °F - 30.2 °F 100% 29.65 in 1.0 mi Calm Calm - N/A   Mist
6:37 PM 30.2 °F 24.3 °F 30.2 °F 100% 29.67 in 2.5 mi West 5.8 mph - N/A   Overcast
6:45 PM 30.2 °F 22.6 °F 30.2 °F 100% 29.68 in 4.0 mi West 8.1 mph - N/A   Overcast
6:53 PM 32.0 °F 23.0 °F 30.2 °F 93% 29.68 in 6.0 mi WNW 11.5 mph 18.4 mph N/A   Overcast
7:27 PM 32.0 °F 22.1 °F 30.2 °F 93% 29.70 in 9.0 mi NW 13.8 mph - N/A   Overcast
7:53 PM 32.0 °F 22.1 °F 30.0 °F 92% 29.77 in 10.0 mi NW 13.8 mph - N/A   Overcast
8:53 PM 30.0 °F 16.3 °F 26.1 °F 85% 29.80 in 10.0 mi NW 24.2 mph 32.2 mph N/A   Overcast
9:53 PM 27.0 °F 12.2 °F 21.9 °F 81% 29.85 in 10.0 mi NW 24.2 mph 34.5 mph N/A   Overcast
10:53 PM 26.6 °F 12.4 °F 21.2 °F 80% 29.82 in 10.0 mi NW 21.9 mph 31.1 mph N/A   Overcast
11:02 PM 26.6 °F 13.1 °F 21.2 °F 80% 29.82 in 10.0 mi NW 19.6 mph 28.8 mph N/A   Overcast
11:53 PM 26.1 °F 11.3 °F 21.0 °F 81% 29.90 in 10.0 mi NW 23.0 mph 29.9 mph N/A   Overcast